sat.trackr.live / text

‹ back to catalog

STARLINK-31731

NORAD 59498 · 2024-071Q

PAYLOAD ACTIVE UNKNOWN

§ Identity

Operator
Country
US
Launch date
2024-04-13
Launch site
AFETR
Launch vehicle
Mass (kg)
RCS (m²)

Purposes: comms

External: N2YO · Heavens-Above · Gunter

§ Orbital elements

Epoch: 2026-09-21T14:45:31.430304Z

Period
94.27 min
Inclination
43.0028°
Eccentricity
0.0001296
Mean motion
15.27573554 rev/d
Perigee alt
482.2 km
Apogee alt
484.0 km
Semi-major
6,861.2 km
B*
9.7168e-5
RAAN
312.9349°
Arg perigee
277.3561°
Mean anomaly
82.7144°
Rev number
13,817

§ Raw data

STARLINK-317311 59498U 24071Q   26264.61494711  .00002412  00000+0  97168-4 0  99952 59498  43.0028 312.9349 0001296 277.3561  82.7144 15.27573554138174

JSON: /api/v1/satellites/59498 · /tle

For live sub-satellite position, see the globe view (requires WebGL).

§ Visibility from observer

Set your observer location to see the next 7 days of passes ≥ 10°. The values pass through the URL so the page stays shareable.

No JS? Fill the form by hand. The geolocation button needs JavaScript.